Location: Unspecified
(0.0000°N, 0.0000°E)
Time: 06:50:30
(UTC+00:00)

Transit 2A - All Passes

Search period start: 03 September 2015 00:00
Search period end: 13 September 2015 00:00
Orbit: 599 x 961 km, 66.7° (Epoch: 01 September)

Date Brightness Start Highest point End Pass type
(mag) Time Alt. Az. Time Alt. Az. Time Alt. Az.
03 Sep - 09:09:26 10° N 09:13:10 29° ENE 09:17:09 10° SE daylight
03 Sep - 10:54:51 10° W 10:56:21 11° WSW 10:57:32 10° SW daylight
03 Sep - 21:42:15 10° SSW 21:48:36 77° WNW 21:54:36 10° NNE night (unlit)
04 Sep - 08:36:42 10° NNE 08:39:20 16° ENE 08:42:15 10° ESE daylight
04 Sep - 10:19:03 10° WNW 10:22:22 20° WSW 10:25:42 10° SSW daylight
04 Sep - 21:08:28 10° SSW 21:14:46 69° ESE 21:20:45 10° NNE night (unlit)
05 Sep - 09:44:25 10° NW 09:48:28 36° WSW 09:52:42 10° S daylight
05 Sep - 20:34:58 10° S 20:40:54 43° ESE 20:46:37 10° NE night (unlit)
05 Sep - 22:20:07 10° WSW 22:24:04 17° WNW 22:27:32 10° NNW night (unlit)
06 Sep - 09:10:17 10° NNW 09:14:37 67° WSW 09:19:13 10° SSE daylight
06 Sep - 20:01:49 10° SSE 20:06:59 28° ESE 20:12:08 10° NE night (unlit)
06 Sep - 21:44:57 10° SW 21:50:11 27° WNW 21:55:00 10° NNW night (unlit)
07 Sep - 08:36:31 10° NNW 08:40:48 65° ENE 08:45:24 10° SSE daylight
07 Sep - 19:29:12 10° SSE 19:33:01 17° ESE 19:37:05 10° ENE visible
07 Sep - 21:10:25 10° SW 21:16:20 42° WNW 21:21:53 10° N night (unlit)
08 Sep - 08:03:04 10° N 08:07:01 34° ENE 08:11:13 10° SE daylight
08 Sep - 18:58:41 10° ESE 18:58:58 10° ESE 18:59:53 10° ESE visible
08 Sep - 20:36:14 10° SSW 20:42:31 67° WNW 20:48:25 10° NNE visible
09 Sep - 07:30:07 10° NNE 07:33:11 19° ENE 07:36:32 10° ESE daylight
09 Sep - 09:13:12 10° WNW 09:16:15 17° WSW 09:19:14 10° SSW daylight
09 Sep - 20:02:22 10° SSW 20:08:42 78° ESE 20:14:39 10° NNE visible
10 Sep - 06:58:38 10° ENE 06:59:18 10° ENE 07:00:20 10° E daylight
10 Sep - 08:38:24 10° NW 08:42:19 30° WSW 08:46:24 10° S daylight
10 Sep - 19:28:47 10° S 19:34:50 49° ESE 19:40:37 10° NE visible
10 Sep - 21:14:41 10° WSW 21:18:00 14° WNW 21:20:47 10° NW visible
11 Sep - 08:04:09 10° NNW 08:08:27 56° WSW 08:13:02 10° S daylight
11 Sep - 18:55:31 10° S 19:00:56 31° ESE 19:06:14 10° NE visible
11 Sep - 20:39:12 10° WSW 20:44:06 23° WNW 20:48:33 10° NNW visible
12 Sep - 07:30:16 10° NNW 07:34:37 78° ENE 07:39:19 10° SSE daylight
12 Sep - 18:22:42 10° SSE 18:26:58 20° ESE 18:31:22 10° ENE visible
12 Sep - 20:04:31 10° SW 20:10:15 37° WNW 20:15:34 10° N visible
